Location: Ar Ranvel
(48.3000°N, 4.8833°W)
Time: 22:30:38
(UTC+00:00)

Meteor 2-10 Rocket - Pass Details

Date: 31 October 2021
Orbit: 733 x 885 km, 81.2° (Epoch: 30 November)

Event Time Altitude Azimuth Distance (km) Brightness Sun altitude
Rises 19:44:59 0° 240° (WSW) 3,323 7.5 -27.5°
Reaches altitude 10° 19:48:19 10° 261° (W) 2,365 6.9 -28.1°
Maximum altitude 19:51:37 16° 299° (WNW) 1,929 6.3 -28.6°
Drops below altitude 10° 19:54:51 10° 338° (NNW) 2,316 6.3 -29.2°
Sets 19:58:06 0° 360° (N) 3,221 6.9 -29.7°
